Camden, SC

3:53 AM EDT on August 31, 2016 (GMT -0400)
Woodward

Weather History for KCDN - April, 2014

Change the Weather History Date:

Wednesday, April 16, 2014

  Actual Average (KSSC) Record (KSSC)
Temperature  
Mean Temperature 45 °F -  
Max Temperature 57 °F 73 °F 89 °F (2006)
Min Temperature 33 °F 50 °F 35 °F (2014)
Degree Days  
Heating Degree Days 20    
Moisture  
Dew Point 27 °F    
Average Humidity 53    
Maximum Humidity 75    
Minimum Humidity 29    
Precipitation  
Precipitation 0.00 in - - ()
Sea Level Pressure  
Sea Level Pressure 30.30 in    
Wind  
Wind Speed 8 mph (NNE)    
Max Wind Speed 18 mph    
Max Gust Speed 24 mph    
Visibility 10 miles    
Events      
Averages and records for this station are not official NWS values.
T = Trace of Precipitation, MM = Missing Value Source: NWS Daily Summary

Daily Weather History Graph

Daily Weather History Graph

Search for Another Location

Airport or City:

Trip Planner

Search our weather history database for the weather conditions in past years. The results will help you decide how hot, cold, wet, or windy it might be!

Date:

Astronomy

Apr. 16, 2014 Rise Set
Actual Time 6:49 AM EDT 7:54 PM EDT
Civil Twilight 6:23 AM EDT 8:20 PM EDT
Nautical Twilight 5:53 AM EDT 8:51 PM EDT
Astronomical Twilight 5:21 AM EDT 9:23 PM EDT
Moon 9:33 PM EDT (4/16) 7:38 AM EDT (4/16)
Length of Visible Light 13h 56m
Length of Day
13h 04m
Full, 98% of the Moon is Illuminated
Apr 16
Full
Apr 22
Last Quarter
Apr 29
New
May 6
First Quarter
May 14
Full

Hourly Weather History & Observations

Time (EDT) Temp. Windchill Dew Point Humidity Pressure Visibility Wind Dir Wind Speed Gust Speed Precip Events Conditions
12:15 AM 44.6 °F 40.7 °F 32.0 °F 61% 30.05 in 10.0 mi North 6.9 mph - N/A   Clear
12:35 AM 42.8 °F 36.2 °F 33.8 °F 70% 30.07 in 10.0 mi North 12.7 mph - N/A   Clear
12:55 AM 42.8 °F 38.0 °F 32.0 °F 66% 30.08 in 10.0 mi North 8.1 mph - N/A   Clear
1:15 AM 41.0 °F 35.2 °F 32.0 °F 70% 30.10 in 10.0 mi North 9.2 mph - N/A   Clear
1:35 AM 41.0 °F 36.4 °F 30.2 °F 65% 30.11 in 10.0 mi North 6.9 mph - N/A   Clear
1:55 AM 39.2 °F 33.0 °F 30.2 °F 70% 30.11 in 10.0 mi North 9.2 mph - N/A   Clear
2:15 AM 39.2 °F 34.2 °F 30.2 °F 70% 30.13 in 10.0 mi North 6.9 mph - N/A   Clear
2:35 AM 39.2 °F 32.5 °F 28.4 °F 65% 30.13 in 10.0 mi North 10.4 mph - N/A   Clear
2:55 AM 39.2 °F 33.0 °F 28.4 °F 65% 30.14 in 10.0 mi North 9.2 mph - N/A   Clear
3:15 AM 37.4 °F 34.9 °F 28.4 °F 70% 30.16 in 10.0 mi NNW 3.5 mph - N/A   Clear
3:35 AM 37.4 °F 32.1 °F 28.4 °F 70% 30.18 in 10.0 mi NNW 6.9 mph - N/A   Clear
3:55 AM 37.4 °F 30.3 °F 28.4 °F 70% 30.18 in 10.0 mi NNW 10.4 mph - N/A   Clear
4:15 AM 37.4 °F 30.8 °F 26.6 °F 65% 30.19 in 10.0 mi North 9.2 mph 16.1 mph N/A   Clear
4:35 AM 37.4 °F 31.4 °F 26.6 °F 65% 30.20 in 10.0 mi North 8.1 mph - N/A   Clear
4:55 AM 35.6 °F 29.2 °F 26.6 °F 70% 30.20 in 10.0 mi North 8.1 mph - N/A   Clear
5:15 AM 35.6 °F 29.2 °F 26.6 °F 70% 30.21 in 10.0 mi North 8.1 mph - N/A   Clear
5:35 AM 35.6 °F 29.9 °F 26.6 °F 70% 30.22 in 10.0 mi North 6.9 mph - N/A   Clear
5:55 AM 35.6 °F 30.7 °F 26.6 °F 70% 30.23 in 10.0 mi North 5.8 mph - N/A   Clear
6:15 AM 35.6 °F 31.7 °F 26.6 °F 70% 30.25 in 10.0 mi North 4.6 mph - N/A   Clear
6:35 AM 33.8 °F - 26.6 °F 75% 30.27 in 10.0 mi Calm Calm - N/A   Clear
6:55 AM 33.8 °F 28.6 °F 26.6 °F 75% 30.28 in 10.0 mi North 5.8 mph - N/A   Clear
7:15 AM 33.8 °F 26.4 °F 26.6 °F 75% 30.29 in 10.0 mi NNE 9.2 mph - N/A   Clear
7:35 AM 35.6 °F 29.9 °F 26.6 °F 70% 30.30 in 10.0 mi NNE 6.9 mph - N/A   Clear
7:55 AM 35.6 °F 29.2 °F 24.8 °F 65% 30.31 in 10.0 mi NNE 8.1 mph - N/A   Clear
8:15 AM 37.4 °F 30.8 °F 24.8 °F 60% 30.32 in 10.0 mi North 9.2 mph - N/A   Clear
8:35 AM 39.2 °F 32.0 °F 24.8 °F 56% 30.34 in 10.0 mi NNE 11.5 mph 18.4 mph N/A   Clear
8:55 AM 39.2 °F 31.6 °F 24.8 °F 56% 30.35 in 10.0 mi NNE 12.7 mph 20.7 mph N/A   Clear
9:15 AM 39.2 °F 29.8 °F 23.0 °F 52% 30.35 in 10.0 mi NNE 18.4 mph 24.2 mph N/A   Clear
9:35 AM 41.0 °F 32.2 °F 23.0 °F 49% 30.35 in 10.0 mi NNE 18.4 mph 24.2 mph N/A   Clear
9:55 AM 42.8 °F 35.4 °F 24.8 °F 49% 30.36 in 10.0 mi NE 15.0 mph - N/A   Clear
10:15 AM 42.8 °F 35.1 °F 23.0 °F 46% 30.36 in 10.0 mi NE 16.1 mph 23.0 mph N/A   Clear
10:35 AM 44.6 °F 37.4 °F 24.8 °F 46% 30.37 in 10.0 mi NE 16.1 mph 21.9 mph N/A   Clear
10:55 AM 44.6 °F 37.4 °F 24.8 °F 46% 30.37 in 10.0 mi NNE 16.1 mph 21.9 mph N/A   Clear
11:15 AM 46.4 °F 40.4 °F 23.0 °F 40% 30.37 in 10.0 mi NE 13.8 mph 20.7 mph N/A   Clear
11:35 AM 46.4 °F 40.4 °F 23.0 °F 40% 30.37 in 10.0 mi NNE 13.8 mph - N/A   Clear
11:55 AM 46.4 °F 40.7 °F 23.0 °F 40% 30.37 in 10.0 mi NNE 12.7 mph 20.7 mph N/A   Clear
12:15 PM 48.2 °F - 23.0 °F 37% 30.37 in 10.0 mi NNE 16.1 mph 19.6 mph N/A   Clear
12:35 PM 48.2 °F - 23.0 °F 37% 30.37 in 10.0 mi ENE 12.7 mph 18.4 mph N/A   Clear
12:55 PM 50.0 °F - 24.8 °F 37% 30.36 in 10.0 mi NE 9.2 mph 18.4 mph N/A   Clear
1:15 PM 50.0 °F - 24.8 °F 37% 30.36 in 10.0 mi NE 13.8 mph - N/A   Clear
1:35 PM 51.8 °F - 24.8 °F 35% 30.36 in 10.0 mi NE 10.4 mph 17.3 mph N/A   Clear
1:55 PM 51.8 °F - 24.8 °F 35% 30.35 in 10.0 mi NE 10.4 mph 17.3 mph N/A   Clear
2:15 PM 53.6 °F - 24.8 °F 33% 30.35 in 10.0 mi North 11.5 mph 16.1 mph N/A   Clear
2:35 PM 53.6 °F - 24.8 °F 33% 30.35 in 10.0 mi ENE 10.4 mph 16.1 mph N/A   Clear
2:55 PM 55.4 °F - 26.6 °F 33% 30.34 in 10.0 mi ENE 3.5 mph - N/A   Clear
3:15 PM 55.4 °F - 26.6 °F 33% 30.33 in 10.0 mi East 9.2 mph - N/A   Clear
3:35 PM 55.4 °F - 26.6 °F 33% 30.33 in 10.0 mi NE 8.1 mph - N/A   Clear
3:55 PM 55.4 °F - 26.6 °F 33% 30.32 in 10.0 mi NE 11.5 mph 17.3 mph N/A   Clear
4:15 PM 55.4 °F - 24.8 °F 31% 30.32 in 10.0 mi ENE 8.1 mph 16.1 mph N/A   Clear
4:35 PM 57.2 °F - 26.6 °F 31% 30.32 in 10.0 mi North 5.8 mph - N/A   Clear
4:55 PM 57.2 °F - 24.8 °F 29% 30.32 in 10.0 mi Calm Calm - N/A   Clear
5:15 PM 57.2 °F - 26.6 °F 31% 30.32 in 10.0 mi East 9.2 mph - N/A   Clear
5:35 PM 57.2 °F - 26.6 °F 31% 30.32 in 10.0 mi NNE 9.2 mph - N/A   Clear
5:55 PM 57.2 °F - 26.6 °F 31% 30.32 in 10.0 mi NE 5.8 mph - N/A   Clear
6:35 PM 57.2 °F - 26.6 °F 31% 30.33 in 10.0 mi East 6.9 mph - N/A   Clear
6:55 PM 55.4 °F - 26.6 °F 33% 30.33 in 10.0 mi East 6.9 mph - N/A   Clear
7:35 PM 53.6 °F - 30.2 °F 41% 30.34 in 10.0 mi East 5.8 mph - N/A   Clear
7:55 PM 51.8 °F - 32.0 °F 47% 30.35 in 10.0 mi East 3.5 mph - N/A   Clear
8:15 PM 50.0 °F - 32.0 °F 50% 30.36 in 10.0 mi Calm Calm - N/A   Clear
8:35 PM 48.2 °F - 32.0 °F 54% 30.37 in 10.0 mi Calm Calm - N/A   Clear
8:55 PM 48.2 °F - 32.0 °F 54% 30.37 in 10.0 mi Calm Calm - N/A   Clear
9:15 PM 46.4 °F 45.2 °F 32.0 °F 57% 30.37 in 10.0 mi East 3.5 mph - N/A   Clear
9:35 PM 46.4 °F - 32.0 °F 57% 30.38 in 10.0 mi Calm Calm - N/A   Clear
9:55 PM 46.4 °F - 32.0 °F 57% 30.39 in 10.0 mi Calm Calm - N/A   Clear
10:15 PM 44.6 °F - 32.0 °F 61% 30.39 in 10.0 mi Calm Calm - N/A   Clear
10:35 PM 44.6 °F - 32.0 °F 61% 30.40 in 10.0 mi Calm Calm - N/A   Clear
10:55 PM 42.8 °F - 32.0 °F 66% 30.40 in 10.0 mi Calm Calm - N/A   Clear
11:15 PM 42.8 °F - 32.0 °F 66% 30.41 in 10.0 mi Calm Calm - N/A   Clear
11:35 PM 42.8 °F 41.1 °F 32.0 °F 66% 30.41 in 10.0 mi East 3.5 mph - N/A   Clear
11:55 PM 41.0 °F 39.0 °F 32.0 °F 70% 30.42 in 10.0 mi ENE 3.5 mph - N/A   Clear